Toledo, OH

2:21 PM EDT on March 24, 2017 (GMT -0400)
Toledo Express

Weather History for KTOL - October, 2013

Change the Weather History Date:

Tuesday, October 15, 2013

  Actual Average Record
Temperature  
Mean Temperature 52 °F 52 °F  
Max Temperature 63 °F 63 °F 87 °F (1897)
Min Temperature 41 °F 42 °F 25 °F (1876)
Degree Days  
Heating Degree Days 13 13  
Month to date heating degree days 86 159  
Since 1 July heating degree days 233 283  
Cooling Degree Days 0 0  
Month to date cooling degree days 21 8  
Year to date cooling degree days 793 792  
Growing Degree Days 2 (Base 50)    
Moisture  
Dew Point 51 °F    
Average Humidity 89    
Maximum Humidity 100    
Minimum Humidity 78    
Precipitation  
Precipitation 0.12 in 0.08 in 1.02 in (2004)
Month to date precipitation 1.93 1.29  
Year to date precipitation 30.69 27.39  
Snow  
Snow 0.00 in 0.00 in - ()
Month to date snowfall 0.0 0.0  
Since 1 July snowfall 0.0 0.0  
Since 1 September snowfall 0.0 0.0  
Snow Depth 0.00 in    
Sea Level Pressure  
Sea Level Pressure 30.04 in    
Wind  
Wind Speed 4 mph (SSE)    
Max Wind Speed 14 mph    
Max Gust Speed 22 mph    
Visibility 8 miles    
Events Rain    
T = Trace of Precipitation, MM = Missing Value Source: NWS Daily Summary

Daily Weather History Graph

Daily Weather History Graph

Search for Another Location

Airport or City:

Trip Planner

Search our weather history database for the weather conditions in past years. The results will help you decide how hot, cold, wet, or windy it might be!

Date:

Astronomy

Oct. 15, 2013 Rise Set
Actual Time 7:47 AM EDT 6:53 PM EDT
Civil Twilight 7:19 AM EDT 7:21 PM EDT
Nautical Twilight 6:47 AM EDT 7:53 PM EDT
Astronomical Twilight 6:15 AM EDT 8:25 PM EDT
Moon 5:00 PM EDT (10/15) 4:06 AM EDT (10/15)
Length of Visible Light 12h 02m
Length of Day
11h 06m
Waxing Gibbous, 87% of the Moon is Illuminated
Oct 15
Waxing Gibbous
Oct 18
Full
Oct 26
Last Quarter
Nov 3
New
Nov 10
First Quarter

Hourly Weather History & Observations

Time (EDT) Temp. Dew Point Humidity Pressure Visibility Wind Dir Wind Speed Gust Speed Precip Events Conditions
12:52 AM 44.1 °F 42.1 °F 93% 30.24 in 10.0 mi Calm Calm - N/A   Clear
1:52 AM 43.0 °F 42.1 °F 97% 30.22 in 10.0 mi Calm Calm - N/A   Clear
2:52 AM 43.0 °F 42.1 °F 97% 30.21 in 10.0 mi Calm Calm - N/A   Clear
3:52 AM 43.0 °F 41.0 °F 93% 30.19 in 10.0 mi Calm Calm - N/A   Clear
4:52 AM 42.1 °F 41.0 °F 96% 30.18 in 10.0 mi Calm Calm - N/A   Clear
5:52 AM 43.0 °F 39.9 °F 89% 30.17 in 10.0 mi Calm Calm - N/A   Mostly Cloudy
6:52 AM 41.0 °F 39.9 °F 96% 30.15 in 10.0 mi Calm Calm - N/A   Scattered Clouds
7:36 AM 44.6 °F 42.8 °F 93% 30.13 in 10.0 mi Calm Calm - N/A   Overcast
7:52 AM 44.1 °F 43.0 °F 96% 30.14 in 10.0 mi Calm Calm - N/A   Mostly Cloudy
8:52 AM 46.0 °F 44.1 °F 93% 30.14 in 10.0 mi Calm Calm - N/A   Clear
9:26 AM 48.2 °F 44.6 °F 87% 30.12 in 10.0 mi ESE 3.5 mph - N/A   Partly Cloudy
9:39 AM 48.2 °F 46.4 °F 93% 30.11 in 10.0 mi SE 4.6 mph - N/A   Mostly Cloudy
9:50 AM 48.2 °F 46.4 °F 93% 30.11 in 10.0 mi SE 5.8 mph - N/A   Scattered Clouds
9:52 AM 48.9 °F 46.9 °F 93% 30.12 in 10.0 mi ESE 4.6 mph - N/A   Scattered Clouds
10:24 AM 51.8 °F 48.2 °F 88% 30.11 in 10.0 mi Calm Calm - N/A   Mostly Cloudy
10:33 AM 51.8 °F 48.2 °F 88% 30.10 in 10.0 mi ESE 3.5 mph - N/A   Scattered Clouds
10:44 AM 51.8 °F 50.0 °F 94% 30.10 in 10.0 mi East 4.6 mph - N/A   Mostly Cloudy
10:52 AM 53.1 °F 50.0 °F 89% 30.11 in 10.0 mi SE 3.5 mph - N/A   Mostly Cloudy
11:06 AM 53.6 °F 51.8 °F 94% 30.10 in 8.0 mi ESE 4.6 mph - N/A   Mostly Cloudy
11:52 AM 55.9 °F 53.1 °F 90% 30.09 in 6.0 mi Variable 4.6 mph - N/A   Overcast
12:52 PM 57.0 °F 54.0 °F 89% 30.07 in 5.0 mi SE 5.8 mph - N/A   Overcast
1:52 PM 57.9 °F 55.0 °F 90% 30.03 in 6.0 mi SSE 4.6 mph - N/A   Overcast
2:52 PM 60.1 °F 55.9 °F 86% 30.01 in 9.0 mi SSE 4.6 mph - N/A   Overcast
3:26 PM 60.8 °F 55.4 °F 82% 29.99 in 8.0 mi Variable 5.8 mph - N/A   Overcast
3:52 PM 62.1 °F 55.9 °F 80% 29.98 in 8.0 mi SE 6.9 mph - N/A   Mostly Cloudy
4:03 PM 60.8 °F 55.4 °F 82% 29.96 in 9.0 mi SE 8.1 mph - N/A   Overcast
4:52 PM 62.1 °F 57.0 °F 84% 29.94 in 8.0 mi SE 5.8 mph - N/A   Overcast
4:59 PM 62.6 °F 57.2 °F 82% 29.93 in 8.0 mi SE 6.9 mph - N/A   Scattered Clouds
5:52 PM 61.0 °F 57.0 °F 87% 29.94 in 9.0 mi Variable 3.5 mph - N/A   Overcast
6:52 PM 61.0 °F 57.0 °F 87% 29.92 in 7.0 mi Variable 3.5 mph - N/A   Overcast
7:52 PM 61.0 °F 57.9 °F 90% 29.92 in 5.0 mi South 3.5 mph - 0.00 in Rain Light Rain
7:59 PM 60.8 °F 57.2 °F 88% 29.92 in 1.8 mi South 5.8 mph - 0.03 in Rain Heavy Rain
8:09 PM 60.8 °F 59.0 °F 94% 29.91 in 3.0 mi Variable 4.6 mph - 0.06 in Rain Light Rain
8:52 PM 61.0 °F 60.1 °F 97% 29.89 in 5.0 mi SSE 5.8 mph - 0.06 in   Overcast
9:52 PM 61.0 °F 60.1 °F 97% 29.89 in 5.0 mi South 6.9 mph - N/A   Overcast
10:52 PM 62.1 °F 61.0 °F 96% 29.88 in 4.0 mi SSW 9.2 mph - 0.01 in Rain Light Rain
11:27 PM 62.6 °F 60.8 °F 94% 29.88 in 4.0 mi SSW 9.2 mph - 0.03 in Rain Light Rain
11:35 PM 62.6 °F 60.8 °F 94% 29.87 in 3.0 mi SSW 10.4 mph 18.4 mph 0.05 in Rain Light Rain
11:49 PM 62.6 °F 60.8 °F 94% 29.87 in 7.0 mi SW 11.5 mph 18.4 mph 0.05 in   Overcast
11:52 PM 62.1 °F 61.0 °F 96% 29.87 in 7.0 mi SSW 10.4 mph - 0.05 in   Overcast